Location: White Mills Observatory
(37.5374°N, 86.0303°W)
Time: 05:20:21
(UTC-05:00)

Hubble Space Telescope - Visible Passes

Search period start: 24 February 2017 00:00
Search period end: 06 March 2017 00:00
Orbit: 538 x 542 km, 28.5° (Epoch: 23 February)

Date Brightness Start Highest point End Pass type
(mag) Time Alt. Az. Time Alt. Az. Time Alt. Az.
24 Feb 3.2 19:29:15 10° SSE 19:29:36 10° SSE 19:29:57 10° SSE visible
25 Feb 3.1 19:17:48 10° S 19:19:30 12° SSE 19:21:12 10° SE visible
25 Feb 3.4 20:56:53 10° SW 20:57:32 13° SW 20:57:32 13° SW visible
26 Feb 3.0 19:07:09 10° SSW 19:09:25 14° SSE 19:11:41 10° SE visible
26 Feb 3.0 20:46:46 10° SW 20:48:15 17° SSW 20:48:15 17° SSW visible
27 Feb 2.7 20:36:41 10° SW 20:38:56 21° SSW 20:38:56 21° SSW visible
28 Feb 2.5 20:26:38 10° SW 20:29:36 23° S 20:29:36 23° S visible
01 Mar 2.4 20:16:37 10° SW 20:19:52 22° S 20:20:16 22° S visible
02 Mar 2.5 20:06:39 10° WSW 20:09:48 21° S 20:10:57 19° SSE visible
03 Mar 2.7 19:56:43 10° WSW 19:59:44 20° S 20:01:39 15° SSE visible
04 Mar 2.9 19:46:50 10° SW 19:49:39 18° SSW 19:52:23 10° SSE visible
05 Mar 3.1 19:37:01 10° SW 19:39:35 16° SSW 19:42:07 10° SSE visible
